Location: Bad Salzschlirf
(50.3750°N, 9.3000°E)
Time: 08:31:25
(UTC+01:00)

ISS - Pass Details

Date: 10 December 2018
Orbit: 401 x 408 km, 51.6° (Epoch: 12 December)

Event Time Altitude Azimuth Distance (km) Brightness Sun altitude
Rises 17:27:17 0° 286° (WNW) 2,320 0.9 -10.2°
Reaches altitude 10° 17:29:23 10° 283° (WNW) 1,458 -0.1 -10.5°
Maximum altitude 17:32:36 61° 202° (SSW) 460 -3.4 -11.0°
Drops below altitude 10° 17:35:49 10° 122° (ESE) 1,451 -1.4 -11.5°
Enters shadow 17:36:19 - 120° (ESE) 1,653 -1.1 -11.5°
